TimeCST,TemperatureF,Dew PointF,Humidity,Sea Level PressureIn,VisibilityMPH,Wind Direction,Wind SpeedMPH,Gust SpeedMPH,PrecipitationIn,Events,Conditions,WindDirDegrees,DateUTC
12:55 AM,39.0,38.8,99,30.12,10.0,SSW,6.9,-,N/A,,Overcast,210,2011-11-24 06:55:00
1:55 AM,39.4,39.2,99,30.12,10.0,SSW,9.2,-,N/A,,Overcast,200,2011-11-24 07:55:00
2:22 AM,39.2,39.2,100,30.12,10.0,SW,9.2,-,N/A,,Overcast,230,2011-11-24 08:22:00
2:55 AM,39.6,39.4,99,30.11,10.0,SSW,10.4,-,N/A,,Overcast,210,2011-11-24 08:55:00
3:55 AM,40.1,39.9,99,30.10,10.0,SSW,6.9,-,N/A,,Overcast,210,2011-11-24 09:55:00
4:10 AM,41.0,39.2,93,30.10,10.0,SW,5.8,-,N/A,,Overcast,220,2011-11-24 10:10:00
4:47 AM,41.0,41.0,100,30.10,10.0,SSW,8.1,-,N/A,,Overcast,210,2011-11-24 10:47:00
4:55 AM,40.5,40.5,100,30.10,10.0,SSW,6.9,-,N/A,,Overcast,200,2011-11-24 10:55:00
5:12 AM,41.0,41.0,100,30.09,10.0,South,4.6,-,N/A,,Overcast,190,2011-11-24 11:12:00
5:55 AM,40.6,40.6,100,30.08,10.0,South,6.9,-,N/A,,Overcast,190,2011-11-24 11:55:00
6:11 AM,41.0,41.0,100,30.07,10.0,South,5.8,-,N/A,,Overcast,190,2011-11-24 12:11:00
6:55 AM,41.0,41.0,100,30.07,9.0,South,8.1,-,N/A,,Overcast,180,2011-11-24 12:55:00
7:55 AM,41.4,41.4,100,30.07,8.0,South,4.6,-,N/A,,Overcast,180,2011-11-24 13:55:00
8:22 AM,41.0,41.0,100,30.07,8.0,SSW,9.2,-,N/A,,Overcast,210,2011-11-24 14:22:00
8:55 AM,42.3,42.3,100,30.06,8.0,Variable,5.8,-,N/A,,Overcast,0,2011-11-24 14:55:00
9:08 AM,42.8,42.8,100,30.06,9.0,South,9.2,19.6,N/A,,Overcast,190,2011-11-24 15:08:00
9:32 AM,42.8,42.8,100,30.06,10.0,SSW,8.1,-,N/A,,Overcast,210,2011-11-24 15:32:00
9:54 AM,44.6,44.6,100,30.06,10.0,SSW,6.9,-,N/A,,Overcast,200,2011-11-24 15:54:00
9:55 AM,44.4,44.1,99,30.06,10.0,SSW,8.1,-,N/A,,Overcast,200,2011-11-24 15:55:00
10:44 AM,46.4,44.6,93,30.05,10.0,South,9.2,-,N/A,,Scattered Clouds,190,2011-11-24 16:44:00
10:55 AM,46.6,44.2,92,30.04,10.0,South,8.1,19.6,N/A,,Scattered Clouds,190,2011-11-24 16:55:00
11:55 AM,49.5,43.5,80,30.00,10.0,SSE,13.8,-,N/A,,Clear,160,2011-11-24 17:55:00
12:55 PM,51.1,43.0,74,29.96,10.0,South,11.5,-,N/A,,Clear,170,2011-11-24 18:55:00
1:55 PM,52.3,43.7,72,29.94,10.0,South,8.1,18.4,N/A,,Clear,180,2011-11-24 19:55:00
2:55 PM,52.0,44.1,74,29.93,10.0,South,6.9,19.6,N/A,,Clear,190,2011-11-24 20:55:00
3:55 PM,50.9,44.6,79,29.91,5.0,South,13.8,-,N/A,,Haze,170,2011-11-24 21:55:00
4:55 PM,47.8,45.3,91,29.91,10.0,South,9.2,-,N/A,,Clear,170,2011-11-24 22:55:00
5:55 PM,47.8,46.2,94,29.90,10.0,South,11.5,18.4,N/A,,Clear,170,2011-11-24 23:55:00
6:55 PM,48.2,46.4,93,29.89,10.0,Variable,5.8,-,N/A,,Clear,0,2011-11-25 00:55:00
7:55 PM,50.0,46.0,86,29.87,10.0,South,8.1,-,N/A,,Clear,190,2011-11-25 01:55:00
8:55 PM,51.3,45.0,79,29.86,10.0,South,10.4,23.0,N/A,,Clear,190,2011-11-25 02:55:00
9:55 PM,51.3,44.2,77,29.86,10.0,South,10.4,18.4,N/A,,Clear,180,2011-11-25 03:55:00
10:55 PM,51.3,43.3,74,29.84,10.0,SSW,10.4,23.0,N/A,,Clear,200,2011-11-25 04:55:00
11:55 PM,51.6,42.3,70,29.83,10.0,South,10.4,18.4,N/A,,Clear,190,2011-11-25 05:55:00